Location: Poughquag
(41.6090°N, 73.6820°W)
Time: 00:42:51
(UTC-04:00)

Oscar 11 - Visible Passes

Search period start: 13 July 2024 00:00
Search period end: 23 July 2024 00:00
Orbit: 602 x 613 km, 97.7° (Epoch: 12 July)

Date Brightness Start Highest point End Pass type
(mag) Time Alt. Az. Time Alt. Az. Time Alt. Az.
13 Jul 7.3 04:37:53 10° NNE 04:42:11 73° ESE 04:46:27 10° S visible
14 Jul 7.0 04:51:22 10° N 04:55:39 80° WNW 04:59:56 10° SSW visible
15 Jul 9.8 03:30:57 10° ENE 03:32:53 13° E 03:34:49 10° ESE visible
16 Jul 9.5 03:43:32 10° NE 03:46:29 18° E 03:49:25 10° SE visible
17 Jul 9.1 03:56:30 10° NE 04:00:03 25° E 04:03:35 10° SSE visible
18 Jul 8.5 04:09:39 10° NNE 04:13:35 34° E 04:17:30 10° SSE visible
19 Jul 7.9 04:22:55 10° NNE 04:27:06 49° E 04:31:15 10° S visible
20 Jul 7.3 04:36:16 10° NNE 04:40:34 70° ESE 04:44:51 10° S visible
21 Jul 7.0 04:49:41 10° N 04:54:01 82° WNW 04:58:18 10° SSW visible
22 Jul 9.8 03:29:23 10° ENE 03:31:11 12° E 03:33:00 10° ESE visible
22 Jul 7.2 05:03:11 10° N 05:07:25 58° WNW 05:11:37 10° SSW visible
